Location: Newark
(55.6995°N, 26.4650°E)
Time: 12:22:00
(UTC+00:00)

ISS - Visible Passes

Search period start: 27 September 2020 00:00
Search period end: 07 October 2020 00:00
Orbit: 419 x 421 km, 51.6° (Epoch: 28 September)

Date Brightness Start Highest point End Pass type
(mag) Time Alt. Az. Time Alt. Az. Time Alt. Az.
27 Sep -3.0 17:26:58 10° WSW 17:30:10 41° S 17:31:39 25° SE visible
27 Sep -1.1 19:03:45 10° W 19:04:38 15° WSW 19:04:38 15° WSW visible
28 Sep -3.0 16:39:49 10° WSW 16:43:02 41° S 16:46:11 10° ESE visible
28 Sep -2.3 18:16:29 10° W 18:19:09 28° SSW 18:19:09 28° SSW visible
29 Sep -2.6 17:29:14 10° W 17:32:19 34° SSW 17:33:42 24° SSE visible
29 Sep -0.7 19:06:36 10° WSW 19:06:40 10° WSW 19:06:40 10° WSW visible
30 Sep -2.7 16:42:01 10° WSW 16:45:11 38° S 16:48:15 11° ESE visible
30 Sep -1.6 18:19:01 10° WSW 18:21:13 18° SW 18:21:13 18° SW visible
01 Oct -1.9 17:31:37 10° WSW 17:34:22 23° SSW 17:35:48 18° SSE visible
02 Oct -2.2 16:44:17 10° W 16:47:15 28° SSW 16:50:12 10° SE visible
02 Oct -0.9 18:22:46 10° SW 18:23:17 10° SW 18:23:24 10° SW visible
03 Oct -1.1 17:34:23 10° WSW 17:36:15 14° SSW 17:38:05 10° S visible
04 Oct -1.4 16:46:45 10° WSW 16:49:11 18° SSW 16:51:34 10° SSE visible
06 Oct -0.6 16:50:34 10° SW 16:50:54 10° SW 16:51:16 10° SSW visible
